Regional Weather Roundup
Issued by NWS

Home | Current Version | Previous Version | Text Only | Print | Product List | Glossary On
Versions: 1 2 3 4 5 6 7 8 9 10 11 12 13 14 15 16 17 18 19 20 21 22 23 24 25 26 27 28 29 30 31 32 33 34 35 36 37 38 39 40 41 42 43 44 45 46 47 48 49 50
000
ASUS45 KREV 240310
RWRNV
NEVADA REGIONAL WEATHER ROUNDUP
NATIONAL WEATHER SERVICE RENO NV
800 PM PDT SAT JUL 23 2016

NOTE: "FAIR" INDICATES FEW OR NO CLOUDS BELOW 12,000 FEET WITH NO
SIGNIFICANT WEATHER AND/OR OBSTRUCTIONS TO VISIBILITY.

NVZ001-003-004-240400-
WESTERN NEVADA

CITY           SKY/WX    TMP DP  RH WIND       PRES   REMARKS
RENO           CLEAR     88  23   9 N14       30.04R
CARSON CITY    FAIR      86  19   8 W6        30.08R
MINDEN         FAIR      82  23  11 W8        30.08R
SLIDE MTN        N/A     63  34  34 W13         N/A
PYRAMID LAKE     N/A     84 N/A N/A SW8         N/A
FALLON         CLEAR     86  24  10 N7        30.00R
LOVELOCK       CLEAR     89  24   9 NE9       30.01R
HAWTHORNE      CLEAR     91  28  10 NW12      30.02R
$$

NVZ002-CAZ072-073-240400-
NORTHERN AND CENTRAL SIERRA

CITY           SKY/WX    TMP DP  RH WIND       PRES   REMARKS
S. LAKE TAHOE  CLEAR     68  32  26 CALM      30.21R
TRUCKEE        CLEAR     75  30  19 W8        30.19S
SQUAW VLY 8000 NOT AVBL
SUSANVILLE     CLEAR     90  23   9 W5        30.04S
MAMMOTH LAKES    N/A     76  21  12 W7        30.25R
BRIDGEPORT       N/A     73  21  14 VRB3      30.21R
$$

NVZ030-031-036-240400-
NORTHERN NEVADA

CITY           SKY/WX    TMP DP  RH WIND       PRES   REMARKS
ELKO           CLEAR     79  16   9 W6        30.08S
WINNEMUCCA     CLEAR     83  22  10 N7        30.06R
WENDOVER       CLEAR     86  27  11 CALM      30.02R
$$

NVZ035-037-240400-
CENTRAL NEVADA

CITY           SKY/WX    TMP DP  RH WIND       PRES   REMARKS
ELY            CLEAR     84  13   7 N10       30.12R
EUREKA           N/A     75  21  13 N10       30.13R
$$

NVZ013-014-240400-
SOUTH CENTRAL NEVADA

CITY           SKY/WX    TMP DP  RH WIND       PRES   REMARKS
TONOPAH        CLEAR     89   3   4 N13       30.06R
$$

NVZ017-020-022-240400-
SOUTHERN NEVADA

CITY           SKY/WX    TMP DP  RH WIND       PRES   REMARKS
LAS VEGAS      CLEAR    106  26   6 SW10      29.72R
N. LAS VEGAS   CLEAR    106  34   8 SW10      29.74R
NELLIS AFB     CLEAR    106  34   8 S10       29.71R
HENDERSON      CLEAR    104  37  10 SW12      29.80R
MERCURY        CLEAR     98  31   9 SW14      29.86R
$$



USA.gov is the U.S. government's official web portal to all federal, state and local government web resources and services.